FW8409 Weather Reports


Display with metric or nautical units.
time (UTC)temp
F
wind
direction
speed
MPH
gust
MPH
rain 1hr
in
rain 24hr
in
rain mn
in
humidity
%
barometer
mb
20260507051526 57 261 0.0 0.0 0.00 0.00 0.00 81 1025.3
20260507050524 57 261 0.0 2.0 0.00 0.00 0.00 80 1025.3
20260507045523 57 355 2.0 3.0 0.00 0.00 0.00 80 1025.3
20260507044523 57 278 0.0 1.0 0.00 0.00 0.00 80 1025.1
20260507043522 57 292 1.0 2.0 0.00 0.00 0.00 80 1025.2
20260507042521 57 281 1.0 1.0 0.00 0.00 0.00 80 1025.1
20260507041520 57 259 1.0 2.0 0.00 0.00 0.00 80 1025.0
20260507040519 57 263 0.0 2.0 0.00 0.00 0.00 79 1024.9
20260507035517 57 264 0.0 3.0 0.00 0.00 0.00 79 1024.8
20260507034516 58 269 1.0 3.0 0.00 0.00 0.00 79 1024.7
20260507033512 58 260 0.0 1.0 0.00 0.00 0.00 79 1024.7
20260507032512 59 18 3.0 3.0 0.00 0.00 0.00 78 1024.3
20260507031510 59 259 0.0 0.0 0.00 0.00 0.00 78 1024.4
20260507030510 59 257 0.0 1.0 0.00 0.00 0.00 78 1024.2
20260507025510 60 291 1.0 3.0 0.00 0.00 0.00 78 1024.2
20260507024506 60 279 1.0 3.0 0.00 0.00 0.00 77 1024.0
20260507023504 60 254 1.0 2.0 0.00 0.00 0.00 77 1024.0
20260507022504 60 258 0.0 1.0 0.00 0.00 0.00 77 1023.8
20260507021501 61 260 1.0 3.0 0.00 0.00 0.00 75 1023.7
20260507020501 62 257 0.0 1.0 0.00 0.00 0.00 76 1023.8
20260507015457 62 266 1.0 5.0 0.00 0.00 0.00 74 1023.9
20260507014456 64 320 1.0 2.0 0.00 0.00 0.00 72 1023.7
20260507013454 63 255 0.0 1.0 0.00 0.00 0.00 72 1024.1
20260507012454 63 256 1.0 2.0 0.00 0.00 0.00 73 1024.0
20260507011454 64 251 1.0 5.0 0.00 0.00 0.00 72 1023.8
20260507010450 65 274 0.0 1.0 0.00 0.00 0.00 70 1023.7
20260507005450 66 258 1.0 2.0 0.00 0.00 0.00 69 1023.7
20260507004449 68 320 2.0 5.0 0.00 0.00 0.00 67 1023.8
20260507003448 68 267 0.0 1.0 0.00 0.00 0.00 67 1023.9
20260507002446 69 289 0.0 3.0 0.00 0.00 0.00 65 1023.6
20260507001445 68 261 0.0 1.0 0.00 0.00 0.00 68 1023.8
20260507000444 68 251 1.0 2.0 0.00 0.00 0.00 68 1023.7
20260506235444 67 286 4.0 6.0 0.00 0.00 0.00 69 1023.8
20260506234443 68 249 0.0 3.0 0.00 0.00 0.00 70 1023.6
20260506233442 69 305 1.0 2.0 0.00 0.00 0.00 68 1023.7
20260506232441 68 290 2.0 3.0 0.00 0.00 0.00 68 1023.5
20260506231441 68 261 1.0 2.0 0.00 0.00 0.00 69 1023.7
20260506230440 69 266 1.0 2.0 0.00 0.00 0.00 67 1023.6
20260506225440 72 263 0.0 1.0 0.00 0.00 0.00 63 1023.6
20260506224440 71 253 0.0 1.0 0.00 0.00 0.00 64 1023.8
20260506223437 68 263 0.0 1.0 0.00 0.00 0.00 67 1024.0
20260506222437 69 238 0.0 1.0 0.00 0.00 0.00 67 1024.1
20260506221437 69 258 0.0 0.0 0.00 0.00 0.00 69 1024.1
20260506220436 69 268 0.0 1.0 0.00 0.00 0.00 66 1024.4
20260506215435 70 285 1.0 2.0 0.00 0.00 0.00 64 1024.1
20260506214434 71 260 0.0 0.0 0.00 0.00 0.00 63 1024.1
20260506213429 71 257 0.0 3.0 0.00 0.00 0.00 64 1024.0
20260506212427 71 258 0.0 1.0 0.00 0.00 0.00 65 1023.9
20260506211423 69 257 0.0 0.0 0.00 0.00 0.00 70 1024.4
20260506210422 67 256 0.0 1.0 0.00 0.00 0.00 70 1024.4
20260506205420 67 263 0.0 0.0 0.00 0.00 0.00 71 1024.5
20260506204420 67 261 0.0 0.0 0.00 0.00 0.00 70 1024.5
20260506203420 67 259 0.0 1.0 0.00 0.00 0.00 70 1024.5
20260506202420 66 265 1.0 2.0 0.00 0.00 0.00 70 1024.6
20260506201420 66 263 2.0 3.0 0.00 0.00 0.00 72 1024.4
20260506200418 65 259 0.0 1.0 0.00 0.00 0.00 75 1024.8
20260506195418 65 254 0.0 1.0 0.00 0.00 0.00 75 1024.5
20260506194418 65 260 0.0 0.0 0.00 0.00 0.00 75 1024.9
20260506193417 65 261 0.0 0.0 0.00 0.00 0.00 76 1024.8
20260506192417 65 261 0.0 0.0 0.00 0.00 0.00 75 1024.8
20260506191416 65 261 0.0 0.0 0.00 0.00 0.00 75 1024.8
20260506190415 64 259 0.0 0.0 0.00 0.00 0.00 76 1024.7
20260506185416 64 267 0.0 0.0 0.00 0.00 0.00 77 1024.8
20260506184415 63 239 0.0 1.0 0.00 0.00 0.00 76 1024.5
20260506183414 63 281 0.0 1.0 0.00 0.00 0.00 78 1024.7
20260506182414 64 261 0.0 0.0 0.00 0.00 0.00 79 1024.5
20260506181409 62 259 0.0 0.0 0.00 0.00 0.00 82 1024.6
20260506180408 61 261 0.0 0.0 0.00 0.00 0.00 84 1024.7
20260506175408 61 257 0.0 0.0 0.00 0.00 0.00 82 1024.8
20260506174402 60 261 0.0 0.0 0.00 0.00 0.00 83 1024.9
20260506173401 60 261 0.0 0.0 0.00 0.00 0.00 84 1024.9
20260506172401 59 259 0.0 0.0 0.00 0.00 0.00 84 1024.8
20260506171356 59 261 0.0 1.0 0.00 0.00 0.00 85 1024.5
20260506170355 59 259 0.0 1.0 0.00 0.00 0.00 85 1024.6
20260506165352 59 260 0.0 0.0 0.00 0.00 0.00 86 1024.7
20260506164351 58 261 0.0 0.0 0.00 0.00 0.00 86 1024.8
20260506163349 58 261 0.0 1.0 0.00 0.00 0.00 85 1024.7
20260506162349 58 260 0.0 1.0 0.00 0.00 0.00 85 1024.4
20260506161343 59 264 0.0 1.0 0.00 0.00 0.00 84 1024.8
20260506160343 59 260 0.0 0.0 0.00 0.00 0.00 85 1024.5
20260506155338 59 260 0.0 1.0 0.00 0.00 0.00 86 1024.3
20260506153456 58 261 0.0 0.0 0.00 0.00 0.00 87 1023.8
20260506152455 57 259 0.0 0.0 0.00 0.00 0.00 88 1024.1
20260506151451 57 260 0.0 0.0 0.00 0.00 0.00 90 1024.5
20260506150450 56 259 0.0 0.0 0.00 0.00 0.00 89 1024.5
20260506145449 56 260 0.0 0.0 0.00 0.00 0.00 89 1024.4
20260506144449 56 285 2.0 2.0 0.00 0.00 0.00 88 1024.5
20260506143444 57 260 0.0 0.0 0.00 0.00 0.00 90 1024.2
20260506142440 57 258 1.0 2.0 0.00 0.00 0.00 88 1024.0
20260506141436 57 260 0.0 0.0 0.00 0.00 0.00 90 1023.9
20260506140431 57 267 0.0 0.0 0.00 0.00 0.00 91 1023.3
20260506135431 57 260 0.0 0.0 0.00 0.00 0.00 91 1023.7
20260506134428 56 262 0.0 0.0 0.00 0.00 0.00 91 1023.5
20260506133428 56 262 0.0 0.0 0.00 0.00 0.00 92 1023.6
20260506132428 56 260 0.0 0.0 0.00 0.00 0.00 92 1023.6
20260506131428 56 260 0.0 0.0 0.00 0.00 0.00 92 1023.4
20260506130427 56 260 0.0 0.0 0.00 0.00 0.00 91 1023.1
20260506125423 56 260 0.0 0.0 0.00 0.00 0.00 91 1023.0
20260506124418 57 260 0.0 0.0 0.00 0.00 0.00 91 1023.0
20260506123414 57 260 0.0 0.0 0.00 0.00 0.00 90 1022.9
20260506122413 57 259 0.0 0.0 0.00 0.00 0.00 89 1022.9
20260506121408 57 259 0.0 0.0 0.00 0.00 0.00 88 1023.2
20260506120403 57 258 0.0 0.0 0.00 0.00 0.00 88 1023.0
20260506115358 57 259 0.0 0.0 0.00 0.00 0.00 87 1023.1
20260506114358 57 262 0.0 0.0 0.00 0.00 0.00 87 1022.8
20260506113354 57 262 0.0 0.0 0.00 0.00 0.00 87 1022.6
20260506112354 57 262 0.0 0.0 0.00 0.00 0.00 87 1022.6
20260506111350 57 261 0.0 0.0 0.00 0.00 0.00 86 1022.7
20260506110349 57 264 0.0 0.0 0.00 0.00 0.00 86 1022.4
20260506105348 57 263 0.0 0.0 0.00 0.00 0.00 87 1022.2
20260506104344 57 263 0.0 0.0 0.00 0.00 0.00 87 1022.1
20260506103339 57 264 0.0 0.0 0.00 0.00 0.00 87 1022.0
20260506102334 57 263 0.0 0.0 0.00 0.00 0.00 86 1022.1
20260506101332 57 259 0.0 0.0 0.00 0.00 0.00 87 1021.8
20260506100329 57 261 0.0 0.0 0.00 0.00 0.00 87 1021.6
20260506095329 57 261 0.0 0.0 0.00 0.00 0.00 87 1021.6
20260506094325 58 263 0.0 0.0 0.00 0.00 0.00 86 1021.7
20260506093325 58 263 0.0 0.0 0.00 0.00 0.00 87 1021.5
20260506092321 58 258 0.0 0.0 0.00 0.00 0.00 86 1021.5
20260506091321 58 258 0.0 0.0 0.00 0.00 0.00 86 1021.4
20260506090316 58 258 0.0 0.0 0.00 0.00 0.00 87 1021.4
20260506085314 58 261 0.0 0.0 0.00 0.00 0.00 88 1021.5
20260506084314 59 264 0.0 0.0 0.00 0.00 0.00 88 1021.4
20260506083308 59 260 0.0 0.0 0.00 0.00 0.00 88 1021.3
20260506082307 59 262 0.0 0.0 0.00 0.00 0.00 88 1021.4
20260506081302 59 261 0.0 0.0 0.00 0.00 0.00 88 1021.4
20260506080301 59 261 0.0 0.0 0.00 0.00 0.00 87 1021.3
20260506073251 59 261 0.0 0.0 0.00 0.00 0.00 86 1021.1
20260506072252 60 265 0.0 0.0 0.00 0.00 0.00 85 1021.0
20260506071247 60 258 0.0 0.0 0.00 0.00 0.00 83 1021.1
20260506070247 60 271 0.0 0.0 0.00 0.00 0.00 82 1021.1
20260506062229 60 256 0.0 0.0 0.00 0.00 0.00 85 1020.8
20260506061229 60 256 0.0 0.0 0.00 0.00 0.00 85 1020.7
20260506060224 60 256 0.0 0.0 0.00 0.00 0.00 84 1020.6